Regional Weather Roundup
Issued by NWS Little Rock, AR

Home | Current Version | Previous Version | Graphics & Text | Print | Product List | Glossary On
Versions: 1 2 3 4 5 6 7 8 9 10 11 12 13 14 15 16 17 18 19 20 21 22 23 24 25 26 27 28 29 30 31 32 33 34 35 36 37 38 39 40 41 42 43 44 45 46 47 48 49 50
000
ASUS44 KLZK 231305
RWRLZK

WEATHER ROUNDUP FOR ARKANSAS
NATIONAL WEATHER SERVICE LITTLE ROCK AR
800 AM CDT WED JUL 23 2014

NOTE: "FAIR" INDICATES FEW OR NO CLOUDS BELOW 12,000 FEET WITH NO
SIGNIFICANT WEATHER AND/OR OBSTRUCTIONS TO VISIBILITY.

ARZ001-003-010-029-231400-
NORTHWEST ARKANSAS

CITY           SKY/WX    TMP DP  RH WIND       PRES   REMARKS
FAYETTEVILLE   MOSUNNY   75  72  90 CALM      30.14R
FORT SMITH     MOSUNNY   79  75  87 S3        30.09R
HARRISON       SUNNY     80  74  81 W7        30.11R HX  85
BENTONVILLE    PTSUNNY   77  72  83 W3        30.14R
ROGERS         PTSUNNY   77  73  87 W5        30.14R FOG
SILOAM SPGS    MOSUNNY   77  70  78 W6        30.14S
HIGHFILL       PTSUNNY   77  75  93 W7        30.13R FOG
$$

ARZ004-005-016-231400-
NORTH CENTRAL ARKANSAS

CITY           SKY/WX    TMP DP  RH WIND       PRES   REMARKS
BATESVILLE     MOSUNNY   75  70  83 CALM      30.06R
FLIPPIN        SUNNY     75  70  83 CALM      30.07S
MTN HOME       PTSUNNY   77  73  87 CALM      30.07R
$$

ARZ040-041-231400-
WEST CENTRAL ARKANSAS

CITY           SKY/WX    TMP DP  RH WIND       PRES   REMARKS
MENA           PTSUNNY   77  73  88 CALM      30.12S
MOUNT IDA      CLOUDY    72  70  93 CALM      30.09R
$$

ARZ009-017-025-026-028-231400-
NORTHEAST ARKANSAS

CITY           SKY/WX    TMP DP  RH WIND       PRES   REMARKS
CORNING        FAIR      75  75 100 SW6       30.05R FOG
JONESBORO      SUNNY     77  71  82 SW6       30.05R
NEWPORT        SUNNY     75  73  93 S7        30.07R FOG
WALNUT RIDGE   SUNNY     75  59  57 SW6       30.05R
BLYTHEVILLE    SUNNY     77  72  84 SW3       30.06R
$$

ARZ022-023-033-042-044-231400-
CENTRAL ARKANSAS

CITY           SKY/WX    TMP DP  RH WIND       PRES   REMARKS
LITTLE ROCK    MOSUNNY   75  69  81 W6        30.08R HAZE
N LITTLE ROCK    N/A     76  72  86 SW3       30.08R
JACKSONVILLE   MOSUNNY   73  69  88 CALM      30.07R
SEARCY         SUNNY     74  71  90 W3        30.08R
HOT SPRINGS    CLOUDY    72  70  93 NW3       30.10R
RUSSELLVILLE   PTSUNNY   76  72  87 CALM      30.07S
CLINTON        PTSUNNY   72  72 100 CALM      30.08S FOG
$$

ARZ036-231400-
EAST ARKANSAS

CITY           SKY/WX    TMP DP  RH WIND       PRES   REMARKS
WEST MEMPHIS   SUNNY     77  74  90 CALM      30.05S
$$

ARZ050-053-066-070-073-231400-
SOUTHWEST ARKANSAS

CITY           SKY/WX    TMP DP  RH WIND       PRES   REMARKS
ARKADELPHIA    FAIR      72  72 100 CALM      30.09S FOG
CAMDEN         MOSUNNY   72  68  88 CALM      30.08R FOG
TEXARKANA      SUNNY     76  71  85 CALM      30.09R
EL DORADO      SUNNY     74  72  93 CALM      30.08S
DE QUEEN       PTSUNNY   72  71  97 CALM      30.08R
$$

ARZ056-057-069-231400-
SOUTHEAST ARKANSAS

CITY           SKY/WX    TMP DP  RH WIND       PRES   REMARKS
PINE BLUFF     SUNNY     74  71  91 W6        30.08R
STUTTGART      SUNNY     75  72  88 W5        30.08S
MONTICELLO     SUNNY     76  70  82 CALM      30.08R

$$





USA.gov is the U.S. government's official web portal to all federal, state and local government web resources and services.